"startDT [UTC]","vpos","CH4 [ppm]","stdev(CH4) [ppm]","CO2 [ppm]","stdev(CO2) [ppm]","H2O [ppm]","stdev(H2O)","p_LGR [torr]","T_LGR [C]","mt1_LGR [us]","mt2_LGR [us]","T_ECpre [C]","T_EC1 [C]","T_EC2 [C]","p_inlet [hPa]","p_in [hPa]","p_out [hPa]","T_inlet [C]","RH_inlet [%]","dwpt_inlet [C]","T_vent [C]","RH_vent [%]","dwpt_vent [C]","flow_vent [l min-1]","flow_inlet [l min-1]","dwpt_sample [C]","T_room [C]"
2012-09-30 00:00:00,0.0,1.9137,0.0011,392.55,0.32,394.3,31.2,138.08,29.83,24.65,36.41,0.04,-272.75,-272.75,-42,569,-917,24.0,15.6,-3.7,24.3,15.6,-3.4,5.73,2.36,-21.3,29.4
2012-09-30 00:01:00,0.0,1.9126,0.0009,392.43,0.34,392.6,31.5,138.08,29.83,24.65,36.40,0.04,-272.74,-272.74,-42,569,-917,24.0,15.5,-3.8,24.3,15.5,-3.5,5.73,2.34,-21.3,29.4
2012-09-30 00:02:00,0.0,1.9138,0.0013,392.64,0.40,396.1,27.5,138.08,29.83,24.65,36.41,0.04,-272.75,-272.75,-42,569,-917,24.0,15.6,-3.7,24.3,15.5,-3.5,5.73,2.28,-21.3,29.4
2012-09-30 00:03:00,0.0,1.9147,0.0009,392.71,0.39,397.9,30.3,138.08,29.83,24.65,36.41,0.04,-272.75,-272.75,-42,569,-917,24.0,15.7,-3.7,24.3,15.6,-3.4,5.73,2.39,-21.3,29.4
2012-09-30 00:04:00,0.0,1.9145,0.0010,392.46,0.36,391.2,28.7,138.08,29.83,24.65,36.41,0.04,-272.75,-272.74,-42,569,-916,24.0,15.7,-3.7,24.3,15.6,-3.4,5.73,2.26,-21.3,29.4
2012-09-30 00:05:00,0.0,1.9146,0.0010,392.42,0.36,399.0,34.8,138.08,29.83,24.65,36.41,0.04,-272.74,-272.75,-42,569,-917,24.0,15.8,-3.6,24.3,15.7,-3.3,5.73,2.36,-21.3,29.5
2012-09-30 00:06:00,0.0,1.9147,0.0010,392.42,0.36,396.3,34.3,138.08,29.83,24.65,36.42,0.04,-272.75,-272.75,-42,569,-916,24.0,15.8,-3.6,24.3,15.8,-3.3,5.73,2.34,-21.2,29.4
2012-09-30 00:07:00,0.0,1.9157,0.0010,392.54,0.42,395.5,40.2,138.08,29.82,24.65,36.41,0.04,-272.75,-272.75,-42,569,-917,24.0,15.8,-3.5,24.3,15.8,-3.3,5.73,2.27,-21.3,29.4
2012-09-30 00:08:00,0.0,1.9157,0.0011,392.55,0.35,400.4,28.3,138.08,29.82,24.65,36.41,0.04,-272.75,-272.74,-42,569,-917,24.0,15.9,-3.5,24.3,15.9,-3.2,5.73,2.39,-21.2,29.4
2012-09-30 00:09:00,0.0,1.9156,0.0013,392.56,0.38,394.9,34.8,138.08,29.82,24.65,36.41,0.04,-272.75,-272.75,-42,569,-917,24.0,15.8,-3.5,24.3,15.8,-3.3,5.73,2.26,-21.2,29.4
2012-09-30 00:10:00,0.0,1.9142,0.0012,392.44,0.42,393.0,38.6,138.08,29.82,24.65,36.41,0.04,-272.74,-272.75,-42,569,-916,24.0,15.7,-3.7,24.3,15.7,-3.4,5.73,2.36,-21.2,29.4
2012-09-30 00:11:00,0.0,1.9142,0.0009,392.46,0.36,394.9,25.9,138.08,29.82,24.65,36.42,0.04,-272.74,-272.75,-42,569,-917,24.0,15.7,-3.7,24.3,15.6,-3.4,5.73,2.33,-21.3,29.4
2012-09-30 00:12:00,0.0,1.9142,0.0007,392.52,0.40,404.9,34.0,138.08,29.82,24.65,36.41,0.04,-272.75,-272.75,-42,569,-916,24.0,15.6,-3.7,24.3,15.6,-3.4,5.73,2.28,-21.3,29.4
2012-09-30 00:13:00,0.0,1.9136,0.0010,392.69,0.30,407.7,36.5,138.08,29.82,24.65,36.41,0.04,-272.75,-272.75,-42,569,-917,24.0,15.5,-3.8,24.3,15.5,-3.5,5.73,2.40,-21.3,29.4
2012-09-30 00:14:00,0.0,1.9137,0.0009,392.68,0.39,394.1,30.1,138.08,29.82,24.65,36.42,0.04,-272.74,-272.75,-42,569,-916,24.0,15.5,-3.8,24.3,15.5,-3.6,5.73,2.26,-21.3,29.4
2012-09-30 00:15:00,0.0,1.9156,0.0011,392.67,0.39,388.1,38.9,138.08,29.82,24.65,36.41,0.04,-272.74,-272.74,-42,569,-917,24.0,15.6,-3.7,24.3,15.6,-3.5,5.73,2.37,-21.3,29.4
2012-09-30 00:16:00,0.0,1.9158,0.0012,392.78,0.39,397.4,32.7,138.08,29.82,24.65,36.41,0.04,-272.75,-272.75,-42,569,-916,23.9,15.7,-3.7,24.3,15.7,-3.4,5.73,2.32,-21.3,29.4
2012-09-30 00:17:00,0.0,1.9155,0.0010,392.85,0.42,386.7,30.1,138.08,29.82,24.65,36.41,0.04,-272.75,-272.75,-42,569,-917,24.0,15.5,-3.8,24.3,15.5,-3.5,5.73,2.29,-21.3,29.4
2012-09-30 00:18:00,0.0,1.9137,0.0011,392.91,0.38,395.6,35.6,138.08,29.82,24.65,36.41,0.04,-272.74,-272.75,-42,569,-916,24.0,15.3,-4.0,24.3,15.3,-3.7,5.73,2.39,-21.2,29.4
2012-09-30 00:19:00,0.0,1.9136,0.0008,392.82,0.32,391.4,29.7,138.08,29.82,24.65,36.42,0.04,-272.75,-272.75,-42,569,-917,24.0,15.2,-4.1,24.3,15.2,-3.8,5.73,2.26,-21.2,29.4
2012-09-30 00:20:00,0.0,1.9144,0.0010,392.79,0.44,405.2,32.9,138.08,29.82,24.65,36.41,0.04,-272.75,-272.75,-42,569,-916,24.0,15.2,-4.1,24.3,15.1,-3.9,5.73,2.38,-21.3,29.4
2012-09-30 00:21:00,0.0,1.9152,0.0011,392.92,0.36,394.3,38.9,138.08,29.81,24.65,36.41,0.04,-272.74,-272.74,-42,569,-917,24.0,15.2,-4.0,24.3,15.2,-3.8,5.73,2.31,-21.2,29.4
2012-09-30 00:22:00,0.0,1.9156,0.0025,392.89,0.45,389.2,40.5,138.08,29.81,24.65,36.41,0.04,-272.74,-272.75,-42,569,-916,24.0,15.3,-4.0,24.3,15.2,-3.8,5.73,2.30,-21.2,29.4
2012-09-30 00:23:00,0.0,1.9182,0.0024,393.02,0.38,389.6,30.6,138.08,29.81,24.65,36.41,0.04,-272.75,-272.75,-42,569,-917,24.0,15.4,-3.9,24.3,15.4,-3.6,5.73,2.38,-21.2,29.4
2012-09-30 00:24:00,0.0,1.9165,0.0021,392.95,0.32,386.8,37.3,138.08,29.81,24.65,36.41,0.04,-272.74,-272.75,-42,569,-916,24.0,15.4,-3.9,24.3,15.4,-3.7,5.73,2.25,-21.2,29.4
2012-09-30 00:25:00,0.0,1.9200,0.0022,392.98,0.29,398.3,41.4,138.08,29.81,24.65,36.41,0.04,-272.74,-272.75,-42,569,-917,24.0,15.5,-3.8,24.3,15.5,-3.6,5.73,2.39,-21.2,29.4
2012-09-30 00:26:00,0.0,1.9142,0.0010,392.88,0.41,398.6,43.5,138.08,29.82,24.65,36.41,0.04,-272.75,-272.75,-42,569,-916,24.0,15.4,-3.9,24.3,15.4,-3.6,5.73,2.29,-21.2,29.4
2012-09-30 00:27:00,0.0,1.9140,0.0012,392.96,0.38,404.0,34.6,138.08,29.82,24.65,36.41,0.04,-272.75,-272.75,-42,569,-917,24.0,15.3,-4.0,24.3,15.3,-3.7,5.73,2.32,-21.2,29.4
2012-09-30 00:28:00,0.0,1.9140,0.0008,392.87,0.38,394.0,40.6,138.08,29.81,24.65,36.41,0.04,-272.75,-272.74,-42,569,-916,24.0,15.3,-4.0,24.3,15.3,-3.8,5.73,2.36,-21.2,29.4
2012-09-30 00:29:00,0.0,1.9158,0.0012,392.92,0.31,394.7,33.4,138.08,29.81,24.65,36.41,0.04,-272.75,-272.75,-42,569,-917,24.0,15.3,-3.9,24.3,15.3,-3.7,5.73,2.26,-21.2,29.4
2012-09-30 00:30:00,0.0,1.9149,0.0018,392.91,0.37,399.0,35.2,138.08,29.81,24.65,36.41,0.04,-272.75,-272.75,-42,569,-916,24.0,15.4,-3.9,24.3,15.4,-3.6,5.73,2.39,-21.3,29.4
2012-09-30 00:31:00,0.0,1.9147,0.0010,392.92,0.38,386.6,35.0,138.08,29.81,24.65,36.41,0.04,-272.75,-272.74,-42,569,-917,24.0,15.4,-3.9,24.3,15.4,-3.6,5.73,2.28,-21.2,29.4
2012-09-30 00:32:00,0.0,1.9145,0.0009,392.96,0.37,394.3,32.0,138.08,29.82,24.65,36.41,0.04,-272.75,-272.75,-42,569,-916,24.0,15.5,-3.9,24.3,15.4,-3.6,5.73,2.34,-21.2,29.4
2012-09-30 00:33:00,0.0,1.9147,0.0011,392.86,0.38,393.5,32.8,138.08,29.82,24.65,36.42,0.04,-272.75,-272.75,-42,569,-916,24.0,15.4,-3.9,24.3,15.4,-3.6,5.73,2.35,-21.3,29.4
2012-09-30 00:34:00,0.0,1.9151,0.0010,393.04,0.34,390.2,32.5,138.08,29.82,24.65,36.40,0.04,-272.74,-272.74,-42,569,-916,24.0,15.5,-3.8,24.3,15.5,-3.6,5.73,2.27,-21.3,29.4
2012-09-30 00:35:00,0.0,1.9151,0.0010,392.93,0.37,389.6,34.7,138.08,29.81,24.65,36.40,0.04,-272.75,-272.75,-42,569,-917,24.0,15.5,-3.8,24.3,15.5,-3.5,5.73,2.40,-21.3,29.4
2012-09-30 00:36:00,0.0,1.9160,0.0009,393.06,0.36,396.2,33.9,138.08,29.82,24.65,36.41,0.04,-272.75,-272.75,-42,569,-916,24.0,15.6,-3.7,24.3,15.6,-3.5,5.73,2.25,-21.3,29.4
2012-09-30 00:37:00,0.0,1.9159,0.0011,392.99,0.37,389.5,34.8,138.08,29.82,24.65,36.41,0.04,-272.75,-272.75,-42,569,-916,24.0,15.6,-3.7,24.3,15.6,-3.4,5.73,2.37,-21.3,29.3
2012-09-30 00:38:00,0.0,1.9167,0.0011,393.08,0.37,403.5,41.5,138.08,29.82,24.65,36.40,0.04,-272.74,-272.74,-42,569,-916,24.0,15.6,-3.7,24.3,15.6,-3.4,5.73,2.32,-21.3,29.4
2012-09-30 00:39:00,0.0,1.9157,0.0009,392.93,0.35,388.3,34.5,138.08,29.81,24.65,36.41,0.04,-272.74,-272.75,-42,569,-916,24.0,15.6,-3.7,24.3,15.6,-3.4,5.73,2.30,-21.3,29.4
2012-09-30 00:40:00,0.0,1.9157,0.0008,392.86,0.34,396.4,33.0,138.08,29.81,24.65,36.41,0.04,-272.75,-272.75,-42,569,-916,24.0,15.6,-3.7,24.3,15.6,-3.5,5.73,2.39,-21.2,29.4
2012-09-30 00:41:00,0.0,1.9151,0.0010,392.78,0.39,395.6,32.6,138.08,29.81,24.65,36.41,0.04,-272.74,-272.75,-42,569,-917,24.0,15.6,-3.7,24.3,15.6,-3.4,5.73,2.26,-21.3,29.4
2012-09-30 00:42:00,0.0,1.9166,0.0013,392.85,0.34,390.1,35.3,138.08,29.81,24.65,36.42,0.04,-272.74,-272.75,-42,569,-916,24.0,15.6,-3.7,24.3,15.6,-3.5,5.73,2.38,-21.2,29.3
2012-09-30 00:43:00,0.0,1.9170,0.0009,392.93,0.35,395.4,33.4,138.08,29.81,24.65,36.41,0.04,-272.75,-272.75,-42,569,-916,24.0,15.6,-3.7,24.3,15.7,-3.4,5.73,2.30,-21.2,29.4
2012-09-30 00:44:00,0.0,1.9163,0.0014,392.64,0.37,395.3,33.5,138.08,29.81,24.65,36.42,0.04,-272.75,-272.75,-42,569,-916,24.0,15.7,-3.7,24.3,15.7,-3.4,5.73,2.31,-21.3,29.3
2012-09-30 00:45:00,0.0,1.9157,0.0015,392.58,0.39,396.1,34.1,138.08,29.81,24.65,36.41,0.04,-272.74,-272.74,-42,569,-916,24.0,15.6,-3.7,24.3,15.6,-3.4,5.73,2.37,-21.2,29.3
2012-09-30 00:46:00,0.0,1.9153,0.0013,392.57,0.33,391.3,34.9,138.08,29.81,24.65,36.41,0.04,-272.75,-272.75,-42,569,-916,24.0,15.5,-3.8,24.3,15.5,-3.5,5.73,2.26,-21.3,29.4
2012-09-30 00:47:00,0.0,1.9155,0.0018,392.67,0.34,404.0,37.4,138.08,29.81,24.65,36.41,0.04,-272.75,-272.75,-42,569,-916,24.0,15.6,-3.7,24.3,15.6,-3.4,5.73,2.39,-21.2,29.4
2012-09-30 00:48:00,0.0,1.9136,0.0009,392.53,0.34,402.5,34.1,138.08,29.81,24.65,36.41,0.04,-272.75,-272.75,-42,569,-916,24.0,15.6,-3.7,24.3,15.6,-3.5,5.73,2.28,-21.2,29.4
2012-09-30 00:49:00,0.0,1.9134,0.0013,392.38,0.32,395.8,39.1,138.08,29.80,24.65,36.42,0.04,-272.74,-272.74,-42,569,-916,24.0,15.7,-3.7,24.3,15.7,-3.4,5.73,2.33,-21.2,29.4
2012-09-30 00:50:00,0.0,1.9163,0.0019,392.55,0.33,396.5,39.9,138.08,29.80,24.65,36.42,0.04,-272.74,-272.75,-42,569,-917,24.0,15.7,-3.6,24.3,15.7,-3.3,5.73,2.36,-21.2,29.4
2012-09-30 00:51:00,0.0,1.9194,0.0013,392.85,0.40,400.5,29.6,138.08,29.81,24.65,36.41,0.04,-272.74,-272.75,-42,569,-916,24.0,15.7,-3.6,24.3,15.7,-3.3,5.73,2.27,-21.3,29.4
2012-09-30 00:52:00,0.0,1.9209,0.0014,393.11,0.37,399.7,32.3,138.08,29.81,24.65,36.41,0.04,-272.74,-272.75,-42,569,-916,24.0,15.8,-3.5,24.3,15.8,-3.2,5.73,2.39,-21.2,29.4
2012-09-30 00:53:00,0.0,1.9228,0.0011,393.31,0.40,391.6,32.6,138.08,29.81,24.65,36.41,0.04,-272.74,-272.75,-42,569,-916,24.0,15.9,-3.4,24.3,15.9,-3.2,5.73,2.26,-21.3,29.4
2012-09-30 00:54:00,0.0,1.9227,0.0013,393.18,0.33,403.2,33.4,138.08,29.81,24.65,36.42,0.04,-272.75,-272.75,-42,569,-916,24.0,16.0,-3.4,24.3,16.0,-3.1,5.73,2.36,-21.3,29.4
2012-09-30 00:55:00,0.0,1.9227,0.0014,393.14,0.44,385.1,29.8,138.08,29.81,24.65,36.41,0.04,-272.74,-272.74,-42,569,-916,24.0,16.0,-3.4,24.3,16.0,-3.1,5.73,2.33,-21.3,29.4
2012-09-30 00:56:00,0.0,1.9204,0.0013,392.65,0.40,386.3,29.0,138.08,29.81,24.65,36.41,0.04,-272.75,-272.75,-42,569,-916,24.0,15.8,-3.5,24.3,15.9,-3.2,5.73,2.28,-21.3,29.4
2012-09-30 00:57:00,0.0,1.9118,0.0017,392.27,0.36,398.4,30.6,138.08,29.81,24.65,36.41,0.04,-272.75,-272.75,-42,569,-916,24.0,15.5,-3.8,24.3,15.6,-3.5,5.73,2.39,-21.3,29.4
2012-09-30 00:58:00,0.0,1.9102,0.0008,392.19,0.39,388.3,37.1,138.08,29.81,24.65,36.41,0.04,-272.74,-272.74,-42,569,-916,24.0,15.3,-3.9,24.3,15.3,-3.7,5.73,2.25,-21.3,29.4
2012-09-30 00:59:00,0.0,1.9102,0.0009,392.15,0.37,398.0,34.5,138.08,29.81,24.65,36.41,0.04,-272.75,-272.74,-42,569,-916,24.0,15.4,-3.9,24.3,15.4,-3.6,5.73,2.38,-21.3,29.5
2012-09-30 01:00:00,0.0,1.9098,0.0010,392.14,0.35,395.7,31.7,138.08,29.81,24.65,36.41,0.04,-272.75,-272.75,-42,569,-916,24.0,15.3,-4.0,24.3,15.3,-3.7,5.73,2.30,-21.3,29.4
2012-09-30 01:01:00,0.0,1.9101,0.0010,392.18,0.35,386.1,36.4,138.08,29.81,24.65,36.41,0.04,-272.75,-272.75,-42,569,-916,24.0,15.3,-4.0,24.3,15.3,-3.8,5.73,2.32,-21.3,29.5
2012-09-30 01:02:00,0.0,1.9106,0.0009,392.16,0.40,394.1,39.8,138.08,29.81,24.65,36.41,0.04,-272.74,-272.74,-42,569,-916,24.0,15.2,-4.1,24.3,15.2,-3.8,5.73,2.36,-21.3,29.5
2012-09-30 01:03:00,0.0,1.9111,0.0009,392.04,0.35,404.1,31.1,138.08,29.81,24.65,36.42,0.04,-272.75,-272.75,-42,569,-916,24.0,15.1,-4.2,24.3,15.1,-3.9,5.73,2.27,-21.3,29.5
2012-09-30 01:04:00,0.0,1.9095,0.0012,391.96,0.35,403.1,39.2,138.08,29.81,24.65,36.42,0.04,-272.75,-272.75,-42,569,-916,24.0,15.0,-4.3,24.3,15.0,-4.0,5.73,2.39,-21.3,29.4
2012-09-30 01:05:00,0.0,1.9092,0.0011,392.07,0.31,392.9,34.7,138.08,29.81,24.65,36.42,0.04,-272.75,-272.75,-42,569,-916,24.0,14.9,-4.3,24.3,14.9,-4.1,5.73,2.26,-21.3,29.4
2012-09-30 01:06:00,0.0,1.9089,0.0011,392.20,0.30,403.7,34.9,138.08,29.81,24.65,36.41,0.04,-272.75,-272.75,-42,569,-916,24.0,15.0,-4.3,24.3,14.9,-4.0,5.73,2.36,-21.2,29.4
2012-09-30 01:07:00,0.0,1.9087,0.0010,391.95,0.38,402.0,35.4,138.08,29.81,24.65,36.41,0.04,-272.75,-272.75,-42,569,-916,24.0,14.9,-4.3,24.3,14.9,-4.0,5.73,2.32,-21.2,29.4
2012-09-30 01:08:00,0.0,1.9088,0.0010,392.04,0.41,400.6,34.8,138.08,29.81,24.65,36.41,0.04,-272.75,-272.75,-42,569,-916,24.0,14.9,-4.3,24.3,14.9,-4.1,5.73,2.29,-21.3,29.4
2012-09-30 01:09:00,0.0,1.9085,0.0008,392.09,0.35,399.3,32.4,138.08,29.81,24.65,36.40,0.04,-272.75,-272.75,-42,569,-916,24.0,14.8,-4.4,24.3,14.8,-4.2,5.73,2.38,-21.2,29.4
2012-09-30 01:10:00,0.0,1.9088,0.0010,392.04,0.35,398.1,34.8,138.08,29.81,24.65,36.41,0.04,-272.75,-272.75,-42,569,-916,24.0,14.8,-4.4,24.3,14.8,-4.2,5.73,2.25,-21.3,29.4
2012-09-30 01:11:00,0.0,1.9096,0.0010,391.96,0.33,384.7,34.7,138.08,29.81,24.65,36.41,0.04,-272.75,-272.75,-42,569,-916,24.0,14.8,-4.4,24.3,14.8,-4.2,5.73,2.39,-21.3,29.4
2012-09-30 01:12:00,0.0,1.9104,0.0011,392.04,0.35,395.3,33.6,138.08,29.81,24.65,36.41,0.04,-272.74,-272.74,-42,569,-916,24.0,14.8,-4.4,24.3,14.8,-4.2,5.73,2.27,-21.3,29.4
2012-09-30 01:13:00,0.0,1.9095,0.0010,391.90,0.38,400.7,33.8,138.08,29.81,24.65,36.42,0.04,-272.75,-272.75,-42,569,-916,24.0,14.8,-4.4,24.3,14.8,-4.2,5.73,2.34,-21.2,29.4
2012-09-30 01:14:00,0.0,1.9094,0.0012,391.95,0.39,395.4,30.6,138.08,29.81,24.65,36.42,0.04,-272.74,-272.75,-42,569,-916,24.0,14.7,-4.6,24.3,14.6,-4.3,5.73,2.34,-21.3,29.4
2012-09-30 01:15:00,0.0,1.9092,0.0009,391.97,0.42,400.1,25.3,138.08,29.81,24.65,36.41,0.04,-272.74,-272.75,-42,569,-916,24.0,14.7,-4.5,24.3,14.7,-4.3,5.73,2.28,-21.3,29.4
2012-09-30 01:16:00,0.0,1.9091,0.0009,391.86,0.34,400.3,35.3,138.08,29.80,24.65,36.42,0.04,-272.75,-272.74,-42,569,-916,24.0,14.6,-4.6,24.3,14.6,-4.3,5.73,2.39,-21.2,29.4
2012-09-30 01:17:00,0.0,1.9095,0.0010,391.87,0.36,401.4,35.1,138.08,29.80,24.65,36.42,0.04,-272.75,-272.75,-42,569,-916,24.0,14.6,-4.6,24.3,14.6,-4.4,5.73,2.25,-21.3,29.4
2012-09-30 01:18:00,0.0,1.9096,0.0010,391.95,0.45,399.5,34.1,138.08,29.80,24.65,36.41,0.04,-272.75,-272.75,-42,569,-916,24.0,14.5,-4.7,24.3,14.5,-4.4,5.73,2.38,-21.2,29.4
2012-09-30 01:19:00,0.0,1.9108,0.0013,391.97,0.39,398.6,35.0,138.08,29.80,24.65,36.41,0.04,-272.75,-272.74,-42,569,-916,24.0,14.7,-4.5,24.3,14.7,-4.3,5.73,2.29,-21.2,29.4
2012-09-30 01:20:00,0.0,1.9093,0.0009,391.90,0.37,393.3,32.7,138.08,29.80,24.65,36.42,0.04,-272.75,-272.75,-42,569,-916,24.0,14.7,-4.5,24.3,14.7,-4.2,5.73,2.32,-21.2,29.4
2012-09-30 01:21:00,0.0,1.9103,0.0012,391.94,0.32,398.1,36.4,138.08,29.80,24.65,36.41,0.04,-272.75,-272.75,-42,569,-916,24.0,14.7,-4.5,24.3,14.7,-4.3,5.73,2.36,-21.2,29.4
2012-09-30 01:22:00,0.0,1.9100,0.0010,391.95,0.30,406.0,33.9,138.08,29.80,24.65,36.41,0.04,-272.74,-272.74,-42,569,-916,24.0,14.8,-4.5,24.3,14.7,-4.2,5.73,2.26,-21.2,29.4
2012-09-30 01:23:00,0.0,1.9094,0.0011,392.01,0.34,405.0,30.2,138.08,29.80,24.65,36.41,0.04,-272.75,-272.75,-42,569,-916,24.0,14.6,-4.6,24.3,14.6,-4.3,5.73,2.39,-21.2,29.4
2012-09-30 01:24:00,0.0,1.9110,0.0011,392.00,0.34,398.7,35.6,138.08,29.80,24.65,36.41,0.04,-272.75,-272.75,-42,569,-916,24.0,14.7,-4.5,24.3,14.7,-4.3,5.73,2.26,-21.2,29.4
2012-09-30 01:25:00,0.0,1.9112,0.0009,391.96,0.42,395.7,33.1,138.08,29.80,24.65,36.41,0.04,-272.74,-272.75,-42,569,-916,24.0,14.8,-4.4,24.3,14.8,-4.2,5.73,2.36,-21.2,29.4
2012-09-30 01:26:00,0.0,1.9116,0.0011,391.89,0.34,397.6,36.1,138.08,29.80,24.65,36.42,0.04,-272.75,-272.75,-42,569,-916,24.0,14.8,-4.4,24.3,14.8,-4.2,5.73,2.32,-21.3,29.4
2012-09-30 01:27:00,0.0,1.9104,0.0014,391.92,0.44,403.0,32.0,138.08,29.80,24.65,36.41,0.04,-272.75,-272.75,-42,569,-916,24.0,14.7,-4.5,24.3,14.7,-4.3,5.73,2.30,-21.3,29.4
2012-09-30 01:28:00,0.0,1.9100,0.0011,391.85,0.40,392.0,27.0,138.08,29.80,24.65,36.42,0.04,-272.75,-272.74,-42,569,-916,24.0,14.7,-4.5,24.3,14.7,-4.3,5.73,2.37,-21.3,29.4
2012-09-30 01:29:00,0.0,1.9114,0.0008,391.90,0.39,396.5,35.6,138.08,29.80,24.65,36.41,0.04,-272.74,-272.75,-42,569,-916,24.0,14.8,-4.4,24.3,14.8,-4.2,5.73,2.26,-21.3,29.4
2012-09-30 01:30:00,0.0,1.9123,0.0014,391.99,0.36,395.7,32.0,138.08,29.80,24.65,36.41,0.04,-272.75,-272.75,-42,569,-915,24.0,14.9,-4.3,24.3,14.9,-4.1,5.73,2.39,-21.3,29.4
2012-09-30 01:31:00,0.0,1.9127,0.0010,391.96,0.41,398.8,36.8,138.08,29.80,24.65,36.41,0.04,-272.74,-272.75,-42,569,-916,24.0,15.1,-4.2,24.3,15.0,-4.0,5.73,2.27,-21.3,29.4
2012-09-30 01:32:00,0.0,1.9129,0.0015,392.00,0.38,390.8,34.2,138.08,29.80,24.65,36.42,0.04,-272.74,-272.75,-42,569,-916,24.0,15.1,-4.2,24.3,15.1,-3.9,5.73,2.35,-21.3,29.4
2012-09-30 01:33:00,0.0,1.9132,0.0009,392.05,0.38,404.6,34.2,138.08,29.80,24.65,36.41,0.04,-272.75,-272.75,-42,569,-916,24.0,15.0,-4.2,24.3,15.0,-4.0,5.73,2.32,-21.3,29.4
2012-09-30 01:34:00,0.0,1.9119,0.0016,392.06,0.33,389.5,35.6,138.08,29.80,24.65,36.41,0.04,-272.74,-272.75,-42,569,-916,24.0,14.9,-4.3,24.3,14.9,-4.1,5.73,2.29,-21.3,29.4
2012-09-30 01:35:00,0.0,1.9112,0.0011,391.95,0.33,396.3,34.9,138.08,29.80,24.65,36.41,0.04,-272.74,-272.75,-42,569,-916,24.0,14.8,-4.4,24.3,14.8,-4.2,5.73,2.38,-21.3,29.4
2012-09-30 01:36:00,0.0,1.9114,0.0010,391.94,0.40,394.4,34.3,138.08,29.80,24.65,36.41,0.04,-272.75,-272.74,-42,569,-916,24.0,14.9,-4.3,24.3,14.9,-4.1,5.73,2.25,-21.3,29.4
2012-09-30 01:37:00,0.0,1.9113,0.0012,391.84,0.43,398.3,32.2,138.08,29.80,24.65,36.42,0.04,-272.75,-272.75,-42,569,-916,24.0,15.0,-4.2,24.3,15.0,-4.0,5.73,2.39,-21.3,29.4
2012-09-30 01:38:00,0.0,1.9097,0.0010,392.02,0.38,393.7,29.7,138.08,29.80,24.65,36.41,0.04,-272.75,-272.75,-42,569,-916,24.0,14.9,-4.3,24.3,14.9,-4.1,5.73,2.28,-21.3,29.4
2012-09-30 01:39:00,0.0,1.9098,0.0010,391.97,0.36,400.1,26.8,138.08,29.80,24.65,36.41,0.04,-272.74,-272.74,-42,569,-916,24.0,14.9,-4.4,24.3,14.9,-4.1,5.73,2.34,-21.3,29.4
2012-09-30 01:40:00,0.0,1.9098,0.0010,391.93,0.35,405.0,32.1,138.08,29.80,24.65,36.40,0.04,-272.74,-272.75,-42,569,-916,24.0,14.8,-4.4,24.3,14.8,-4.2,5.73,2.34,-21.3,29.4
2012-09-30 01:41:00,0.0,1.9102,0.0011,391.88,0.42,401.0,35.4,138.08,29.81,24.65,36.42,0.04,-272.74,-272.74,-42,569,-916,24.0,14.8,-4.4,24.3,14.8,-4.2,5.73,2.28,-21.2,29.4
2012-09-30 01:42:00,0.0,1.9117,0.0017,392.02,0.37,393.6,31.2,138.08,29.81,24.65,36.41,0.04,-272.74,-272.74,-42,569,-916,24.0,14.8,-4.4,24.3,14.8,-4.1,5.73,2.39,-21.2,29.4
2012-09-30 01:43:00,0.0,1.9118,0.0014,391.94,0.43,398.1,29.1,138.08,29.81,24.65,36.41,0.04,-272.74,-272.74,-42,569,-916,24.0,14.9,-4.4,24.3,14.9,-4.1,5.73,2.25,-21.3,29.4
2012-09-30 01:44:00,0.0,1.9119,0.0027,391.94,0.36,390.1,32.8,138.08,29.81,24.65,36.42,0.04,-272.74,-272.74,-42,569,-916,24.0,14.9,-4.3,24.3,14.9,-4.1,5.73,2.38,-21.3,29.4
2012-09-30 01:45:00,0.0,1.9101,0.0011,391.89,0.34,404.7,40.6,138.08,29.81,24.65,36.41,0.04,-272.74,-272.75,-42,569,-916,24.0,14.8,-4.4,24.3,14.8,-4.2,5.73,2.29,-21.3,29.4
2012-09-30 01:46:00,0.0,1.9105,0.0009,391.87,0.36,403.2,36.0,138.08,29.81,24.65,36.42,0.04,-272.74,-272.74,-42,569,-916,24.0,14.8,-4.4,24.3,14.8,-4.2,5.73,2.31,-21.3,29.4
2012-09-30 01:47:00,0.0,1.9103,0.0014,391.83,0.40,405.2,35.3,138.08,29.81,24.65,36.41,0.04,-272.75,-272.75,-42,569,-916,24.0,14.7,-4.5,24.3,14.7,-4.3,5.73,2.36,-21.3,29.3
2012-09-30 01:48:00,0.0,1.9127,0.0014,391.91,0.40,387.3,31.6,138.08,29.81,24.65,36.42,0.04,-272.74,-272.75,-42,569,-916,24.0,14.8,-4.4,24.3,14.8,-4.2,5.73,2.27,-21.3,29.4
2012-09-30 01:49:00,0.0,1.9132,0.0019,391.94,0.42,393.0,31.6,138.08,29.81,24.65,36.41,0.04,-272.74,-272.74,-42,569,-916,24.0,14.9,-4.3,24.3,14.9,-4.1,5.73,2.39,-21.3,29.4
2012-09-30 01:50:00,0.0,1.9144,0.0016,392.06,0.33,394.8,36.7,138.08,29.81,24.65,36.41,0.04,-272.74,-272.75,-42,569,-916,24.0,15.0,-4.3,24.3,15.0,-4.0,5.73,2.25,-21.3,29.4
2012-09-30 01:51:00,0.0,1.9172,0.0013,392.07,0.34,395.1,34.6,138.08,29.81,24.65,36.42,0.04,-272.75,-272.75,-42,569,-916,24.0,15.0,-4.2,24.3,15.0,-4.0,5.73,2.38,-21.3,29.3
2012-09-30 01:52:00,0.0,1.9152,0.0020,391.98,0.38,384.2,27.7,138.08,29.81,24.65,36.41,0.04,-272.74,-272.74,-42,569,-916,24.0,15.1,-4.2,24.3,15.1,-3.9,5.73,2.29,-21.3,29.4
2012-09-30 01:53:00,0.0,1.9195,0.0012,392.19,0.39,395.0,36.0,138.08,29.81,24.65,36.41,0.04,-272.74,-272.74,-42,569,-916,24.0,15.3,-4.0,24.3,15.3,-3.8,5.73,2.32,-21.3,29.4
2012-09-30 01:54:00,0.0,1.9119,0.0022,392.00,0.30,397.1,37.5,138.08,29.81,24.65,36.41,0.04,-272.74,-272.75,-42,569,-916,24.0,15.0,-4.2,24.3,15.1,-3.9,5.73,2.36,-21.3,29.4
2012-09-30 01:55:00,0.0,1.9112,0.0017,392.14,0.43,404.0,30.8,138.08,29.81,24.65,36.41,0.04,-272.75,-272.75,-42,569,-916,24.0,15.0,-4.3,24.3,15.0,-4.0,5.73,2.26,-21.3,29.4
2012-09-30 01:56:00,0.0,1.9104,0.0009,391.98,0.35,397.9,37.7,138.08,29.81,24.65,36.41,0.04,-272.74,-272.74,-42,569,-916,24.0,14.9,-4.3,24.3,14.9,-4.1,5.73,2.40,-21.3,29.5
2012-09-30 01:57:00,0.0,1.9110,0.0015,391.96,0.36,392.1,36.5,138.08,29.81,24.65,36.42,0.04,-272.75,-272.75,-42,569,-916,24.0,14.9,-4.3,24.3,14.9,-4.1,5.73,2.25,-21.3,29.4
2012-09-30 01:58:00,0.0,1.9119,0.0011,392.06,0.44,394.8,40.9,138.08,29.81,24.65,36.41,0.04,-272.75,-272.75,-42,569,-915,24.0,15.0,-4.3,24.3,15.0,-4.0,5.73,2.37,-21.3,29.4
2012-09-30 01:59:00,0.0,1.9097,0.0010,391.93,0.31,400.0,39.5,138.08,29.81,24.65,36.42,0.04,-272.74,-272.74,-42,569,-916,24.0,14.9,-4.4,24.3,14.9,-4.1,5.73,2.29,-21.3,29.4
2012-09-30 02:00:00,0.0,1.9098,0.0011,391.94,0.38,397.1,37.7,138.08,29.81,24.65,36.42,0.04,-272.75,-272.74,-42,569,-916,24.0,14.9,-4.3,24.3,14.9,-4.1,5.73,2.32,-21.3,29.4
2012-09-30 02:01:00,0.0,1.9112,0.0011,392.08,0.39,396.7,29.4,138.08,29.81,24.65,36.41,0.04,-272.75,-272.74,-42,569,-916,24.0,15.0,-4.2,24.3,15.0,-4.0,5.73,2.36,-21.3,29.4
2012-09-30 02:02:00,0.0,1.9146,0.0013,392.23,0.36,399.4,33.1,138.08,29.81,24.65,36.41,0.04,-272.74,-272.74,-42,569,-916,24.0,15.2,-4.0,24.4,15.2,-3.8,5.73,2.27,-21.3,29.4
2012-09-30 02:03:00,0.0,1.9154,0.0012,392.22,0.34,401.0,34.2,138.08,29.81,24.65,36.41,0.04,-272.74,-272.74,-42,569,-915,24.0,15.3,-4.0,24.3,15.3,-3.7,5.73,2.39,-21.3,29.4
2012-09-30 02:04:00,0.0,1.9154,0.0012,392.32,0.35,391.5,32.0,138.08,29.81,24.65,36.41,0.04,-272.75,-272.75,-42,569,-916,24.0,15.3,-3.9,24.3,15.3,-3.7,5.73,2.25,-21.3,29.5
2012-09-30 02:05:00,0.0,1.9156,0.0032,392.24,0.40,405.4,35.7,138.08,29.81,24.65,36.42,0.04,-272.75,-272.75,-42,569,-915,24.0,15.3,-4.0,24.3,15.3,-3.7,5.73,2.37,-21.3,29.5
2012-09-30 02:06:00,0.0,1.9106,0.0009,392.15,0.37,403.0,29.6,138.08,29.81,24.65,36.41,0.28,-270.77,-271.52,-42,569,-916,24.0,15.0,-4.2,24.3,15.0,-3.9,5.42,2.36,-25.9,29.4
2012-09-30 02:07:00,0.0,1.9135,0.0014,392.24,0.32,395.8,33.0,138.08,29.81,24.64,36.41,0.04,-272.74,-272.74,-42,569,-915,24.0,15.1,-4.1,24.3,15.1,-3.9,5.73,2.30,-21.3,29.4
2012-09-30 02:08:00,0.0,1.9130,0.0015,392.32,0.36,395.9,25.9,138.08,29.81,24.65,36.41,0.04,-272.75,-272.75,-42,569,-915,24.0,15.2,-4.1,24.3,15.2,-3.8,5.73,2.38,-21.3,29.4
2012-09-30 02:09:00,0.0,1.9166,0.0017,392.28,0.35,390.5,31.0,138.08,29.81,24.65,36.41,0.04,-272.74,-272.74,-42,569,-916,24.0,15.3,-4.0,24.3,15.3,-3.7,5.73,2.25,-21.3,29.4
2012-09-30 02:10:00,0.0,1.9214,0.0010,392.31,0.36,393.5,33.4,138.08,29.81,24.65,36.42,0.04,-272.75,-272.74,-42,569,-915,24.0,15.5,-3.8,24.3,15.5,-3.5,5.73,2.40,-21.3,29.4
2012-09-30 02:11:00,0.0,1.9175,0.0033,392.33,0.37,397.7,33.8,138.08,29.81,24.65,36.42,0.04,-272.74,-272.75,-42,569,-915,24.0,15.5,-3.8,24.3,15.5,-3.6,5.73,2.26,-21.3,29.4
2012-09-30 02:12:00,0.0,1.9154,0.0018,392.34,0.36,390.3,34.4,138.08,29.81,24.65,36.42,0.04,-272.74,-272.74,-42,569,-915,24.0,15.3,-4.0,24.3,15.3,-3.7,5.73,2.35,-21.3,29.4
2012-09-30 02:13:00,0.0,1.9175,0.0014,392.48,0.39,399.9,34.6,138.08,29.81,24.65,36.41,0.04,-272.74,-272.75,-42,569,-915,24.0,15.4,-3.9,24.4,15.4,-3.6,5.73,2.32,-21.3,29.4
2012-09-30 02:14:00,0.0,1.9155,0.0023,392.52,0.34,388.6,32.6,138.08,29.81,24.65,36.41,0.04,-272.75,-272.75,-42,569,-915,24.0,15.4,-3.9,24.3,15.4,-3.6,5.73,2.30,-21.3,29.4
2012-09-30 02:15:00,0.0,1.9113,0.0014,392.45,0.38,405.3,27.7,138.08,29.81,24.65,36.41,0.04,-272.75,-272.75,-42,569,-915,24.0,15.2,-4.1,24.3,15.2,-3.8,5.73,2.37,-21.3,29.4
2012-09-30 02:16:00,0.0,1.9111,0.0010,392.44,0.32,396.2,34.5,138.08,29.81,24.65,36.41,0.04,-272.74,-272.74,-42,569,-916,24.0,15.1,-4.1,24.3,15.1,-3.9,5.73,2.26,-21.3,29.4